Location: Unspecified
(0.0000°N, 0.0000°E)
Time: 17:29:36
(UTC+00:00)

Vanguard 2 - Pass Details

Date: 12 December 2017
Orbit: 553 x 2940 km, 32.9° (Epoch: 18 January)

Event Time Altitude Azimuth Distance (km) Brightness Sun altitude
Rises 09:58:33 0° 225° (SW) 6,796 12.3 53.7°
Reaches altitude 10° 10:03:34 10° 219° (SW) 5,737 12.1 54.6°
Maximum altitude 10:19:46 47° 151° (SSE) 2,995 12.6 57.5°
Drops below altitude 10° 10:31:05 10° 81° (E) 4,132 11.6 59.4°
Sets 10:34:01 0° 75° (ENE) 4,830 11.8 59.8°
